Regional Weather Roundup
Issued by NWS

Home | Current Version | Previous Version | Text Only | Print | Product List | Glossary On
Versions: 1 2 3 4 5 6 7 8 9 10 11 12 13 14 15 16 17 18 19 20 21 22 23 24 25 26 27 28 29 30 31 32 33 34 35 36 37 38 39 40 41 42 43 44 45 46 47 48 49 50
000
ASUS44 KJAN 230510
RWRMS

MISSISSIPPI HOURLY WEATHER ROUNDUP
NATIONAL WEATHER SERVICE JACKSON MS
1100 PM CST MON DEC 22 2014

NOTE: "FAIR: INDICATES FEW OR NO CLOUDS BELOW 12,000 FEET WITH NO
SIGNIFICANT WEATHER AND/OR OBSTRUCTIONS TO VISIBILITY.

MSZ001>002-007>008-010>013-018>021-025>028-034>036-230600-
NORTHWEST MISSISSIPPI

CITY           SKY/WX    TMP DP  RH WIND       PRES   REMARKS
CLARKSDALE       N/A     55  55 100 CALM      29.67R VSB 3/4
CLEVELAND      MOCLDY    56  56 100 S7        29.66R FOG
GREENWOOD      CLOUDY    62  58  86 W6        29.68R
GREENVILLE     CLOUDY    56  55  97 S3        29.66R FOG
GRENADA        RAIN      59  57  94 CALM      29.69R
OLIVE BRANCH   MOCLDY    54 N/A N/A S5        29.66F
OXFORD         CLOUDY    55  55 100 S6        29.71R FOG
TUNICA         CLOUDY    55  54  94 S6        29.67S FOG
$$

MSZ003>006-009-014>017-022>024-029>033-037>039-230600-
NORTHEAST MISSISSIPPI

CITY           SKY/WX    TMP DP  RH WIND       PRES   REMARKS
COLUMBUS AFB   CLOUDY    59  59 100 S6        29.71R
CORINTH        CLOUDY    57  55  94 S8        29.68S FOG
GOLDN TRIANGLE CLOUDY    57  55  94 S12       29.70F
STARKVILLE     CLOUDY    55  55 100 SE6       29.70S
TUPELO         CLOUDY    58  56  93 S10       29.70S FOG
$$

MSZ040-058-230600-
CENTRAL MISSISSIPPI

CITY           SKY/WX    TMP DP  RH WIND       PRES   REMARKS
JACKSON INTL   MOCLDY    64  62  93 S8        29.71R
JACKSON HAWKNS MOCLDY    62  60  93 S7        29.70R
MERIDIAN KEY   MOCLDY    65  63  93 S13       29.73S
MERIDIAN NAS   FOG       60  59  96 SE6       29.73S VSB 1/2
RAYMOND        LGT RAIN  63  59  88 S7        29.70R
VICKSBURG      MOCLDY    64  60  87 S3        29.68S
$$

MSZ059>079-230600-
SOUTH MISSISSIPPI

CITY           SKY/WX    TMP DP  RH WIND       PRES   REMARKS
HATTIESBURG    MOCLDY    69  66  90 S8        29.75R
MCCOMB         CLOUDY    66  63  90 S7        29.72S
NATCHEZ        CLOUDY    66  61  82 SW7       29.71S
PINE BELT      CLOUDY    66  63  88 S6        29.75R
$$

MSZ080>082-230600-
COASTAL MISSISSIPPI

CITY           SKY/WX    TMP DP  RH WIND       PRES   REMARKS
BILOXI         FOG       64  64 100 S10       29.77R VSB 3/4
PASCAGOULA     CLOUDY    67  66  97 S9        29.77S FOG
GULFPORT       CLOUDY    66  65  96 VRB7      29.75F FOG
$$



USA.gov is the U.S. government's official web portal to all federal, state and local government web resources and services.